Location: Newark
(50.0306°N, 2.3272°E)
Time: 00:20:37
(UTC+00:00)

Transit 2A Rocket - Pass Details

Date: 14 December 2019
Orbit: 593 x 910 km, 66.7° (Epoch: 20 January)

Event Time Altitude Azimuth Distance (km) Brightness Sun altitude
Rises 22:02:13 0° 327° (NNW) 2,851 - -56.5°
Reaches altitude 10° 22:04:49 10° 342° (NNW) 1,963 - -56.8°
Maximum altitude 22:08:23 24° 36° (NE) 1,313 - -57.2°
Drops below altitude 10° 22:12:06 10° 90° (E) 2,050 - -57.6°
Sets 22:14:51 0° 105° (ESE) 3,010 - -57.9°
